EW1620 Weather Reports


Display with metric or nautical units.
time (UTC)temp
F
wind
direction
speed
MPH
gust
MPH
rain 1hr
in
rain 24hr
in
rain mn
in
humidity
%
barometer
mb
20260506135027 46 269 2.0 11.0 0.00 0.14 0.14 77 1018.5
20260506134527 46 257 2.0 9.0 0.00 0.14 0.14 76 1018.5
20260506134028 46 304 1.0 8.0 0.00 0.14 0.14 76 1018.6
20260506133528 46 267 3.0 13.0 0.00 0.14 0.14 76 1018.7
20260506133026 46 201 4.0 13.0 0.00 0.14 0.14 76 1018.7
20260506132532 46 293 2.0 8.0 0.00 0.14 0.14 76 1018.8
20260506132029 46 238 3.0 10.0 0.00 0.14 0.14 77 1018.9
20260506131531 46 223 3.0 14.0 0.00 0.14 0.14 77 1018.8
20260506131026 46 273 3.0 13.0 0.00 0.14 0.14 77 1018.9
20260506130526 46 273 4.0 13.0 0.00 0.14 0.14 78 1018.9
20260506130026 47 229 2.0 18.0 0.00 0.14 0.14 78 1018.8
20260506125528 47 276 5.0 18.0 0.00 0.14 0.14 79 1018.8
20260506125029 47 221 2.0 11.0 0.00 0.14 0.14 79 1018.8
20260506124525 47 287 4.0 15.0 0.00 0.14 0.14 79 1018.7
20260506124026 47 281 5.0 10.0 0.00 0.14 0.14 79 1018.6
20260506123526 47 267 2.0 9.0 0.00 0.14 0.14 80 1018.6
20260506123026 47 229 3.0 8.0 0.00 0.14 0.14 80 1018.5
20260506122526 47 285 2.0 9.0 0.00 0.14 0.14 81 1018.4
20260506122025 47 247 3.0 10.0 0.00 0.14 0.14 81 1018.4
20260506121526 47 255 3.0 10.0 0.00 0.14 0.14 82 1018.3
20260506121025 47 298 3.0 12.0 0.00 0.14 0.14 83 1018.3
20260506120529 47 255 4.0 12.0 0.00 0.14 0.14 83 1018.3
20260506120028 47 269 1.0 8.0 0.00 0.14 0.14 84 1018.2
20260506115526 47 265 2.0 8.0 0.00 0.14 0.14 84 1018.1
20260506115024 47 230 2.0 5.0 0.00 0.14 0.14 84 1018.1
20260506114530 47 250 1.0 8.0 0.00 0.14 0.14 84 1018.2
20260506114024 48 246 2.0 8.0 0.00 0.14 0.14 85 1018.1
20260506113524 48 294 3.0 8.0 0.00 0.14 0.14 85 1018.1
20260506113022 48 255 3.0 8.0 0.00 0.14 0.14 85 1018.2
20260506112523 48 298 1.0 8.0 0.00 0.14 0.14 85 1018.2
20260506112023 48 300 3.0 10.0 0.00 0.14 0.14 86 1018.2
20260506111524 48 300 2.0 10.0 0.00 0.14 0.14 86 1018.2
20260506111023 48 269 2.0 9.0 0.00 0.14 0.14 86 1018.3
20260506110523 48 255 1.0 8.0 0.00 0.14 0.14 86 1018.2
20260506110025 48 281 1.0 12.0 0.00 0.14 0.14 86 1018.2
20260506105523 48 254 5.0 14.0 0.00 0.14 0.14 86 1018.2
20260506105026 48 201 2.0 14.0 0.00 0.14 0.14 86 1018.3
20260506104527 49 266 3.0 10.0 0.00 0.14 0.14 87 1018.3
20260506104021 49 273 1.0 12.0 0.00 0.14 0.14 87 1018.4
20260506103521 49 264 5.0 16.0 0.00 0.14 0.14 87 1018.3
20260506103022 49 234 2.0 16.0 0.00 0.14 0.14 87 1018.2
20260506102521 49 252 4.0 17.0 0.00 0.14 0.14 87 1018.2
20260506102021 49 234 4.0 16.0 0.00 0.14 0.14 87 1017.9
20260506101538 50 245 7.0 24.0 0.00 0.14 0.14 87 1018.0
20260506101021 51 199 9.0 24.0 0.00 0.14 0.14 88 1017.9
20260506100521 51 249 8.0 14.0 0.01 0.14 0.14 89 1017.5
20260506100021 51 231 6.0 17.0 0.01 0.14 0.14 89 1017.3
20260506095520 52 227 7.0 17.0 0.02 0.14 0.14 89 1017.2
20260506095024 52 213 3.0 10.0 0.02 0.14 0.14 89 1017.2
20260506094524 52 229 1.0 8.0 0.05 0.14 0.14 88 1017.0
20260506094024 52 225 1.0 10.0 0.06 0.14 0.14 88 1016.9
20260506093519 52 281 3.0 10.0 0.06 0.14 0.14 88 1016.9
20260506093023 52 242 2.0 12.0 0.06 0.14 0.14 88 1016.9
20260506092519 53 265 1.0 12.0 0.06 0.14 0.14 88 1016.9
20260506092020 53 246 2.0 9.0 0.06 0.14 0.14 87 1016.9
20260506091520 53 237 3.0 11.0 0.06 0.14 0.14 87 1016.8
20260506091019 53 242 6.0 11.0 0.06 0.14 0.14 87 1016.7
20260506090519 54 284 2.0 11.0 0.05 0.13 0.13 87 1016.6
20260506090019 54 228 3.0 11.0 0.04 0.13 0.13 86 1016.4
20260506085518 54 279 5.0 17.0 0.04 0.13 0.13 86 1016.4
20260506085019 55 225 7.0 17.0 0.04 0.13 0.13 86 1016.3
20260506084519 55 226 8.0 16.0 0.01 0.09 0.09 86 1016.1
20260506084020 55 309 1.0 6.0 0.01 0.09 0.09 86 1015.3
20260506083520 55 303 2.0 6.0 0.02 0.09 0.09 86 1015.3
20260506083019 56 297 1.0 6.0 0.03 0.09 0.09 86 1015.2
20260506082523 56 292 3.0 8.0 0.04 0.09 0.09 86 1015.2
20260506082019 56 276 3.0 8.0 0.09 0.09 0.09 85 1015.1
20260506081528 56 320 2.0 6.0 0.09 0.09 0.09 85 1015.0
20260506081022 56 296 2.0 8.0 0.09 0.09 0.09 85 1015.0
20260506080520 56 317 3.0 10.0 0.09 0.09 0.09 84 1015.1
20260506073516 59 294 6.0 15.0 0.07 0.07 0.07 78 1015.0
20260506073030 60 310 5.0 11.0 0.06 0.06 0.06 76 1015.1
20260506072516 61 269 5.0 11.0 0.05 0.05 0.05 74 1015.3
20260506072015 61 300 4.0 10.0 0.00 0.00 0.00 72 1015.0
20260506071515 61 296 2.0 12.0 0.00 0.00 0.00 71 1014.6
20260506071018 61 13 7.0 14.0 0.00 0.00 0.00 69 1014.4
20260506070514 62 338 5.0 14.0 0.00 0.00 0.00 69 1014.4
20260506062512 64 290 7.0 17.0 0.00 0.00 0.00 63 1014.6
20260506062012 64 329 5.0 14.0 0.00 0.00 0.00 63 1014.6
20260506061511 64 296 7.0 14.0 0.00 0.00 0.00 62 1014.8
20260506061011 64 300 5.0 16.0 0.00 0.00 0.00 62 1014.8
20260506060510 65 313 9.0 17.0 0.00 0.00 0.00 61 1015.0
20260506051006 66 339 6.0 15.0 0.00 0.00 0.00 57 1015.3
20260506050506 66 339 5.0 16.0 0.00 0.00 0.00 57 1015.3
20260506045005 66 309 6.0 17.0 0.00 0.00 0.00 57 1015.5
20260506044512 66 325 6.0 16.0 0.00 0.00 0.00 56 1015.6
20260506044004 66 307 6.0 18.0 0.00 0.00 0.00 55 1015.7
20260506043505 67 306 10.0 18.0 0.00 0.00 0.00 55 1015.8
20260506043002 66 278 4.0 16.0 0.00 0.00 0.00 55 1015.9
20260506042502 66 281 7.0 15.0 0.00 0.00 0.00 55 1016.0
20260506042002 66 311 7.0 17.0 0.00 0.00 0.00 56 1016.0
20260506041500 65 319 8.0 17.0 0.00 0.00 0.00 56 1016.0
20260506041100 65 279 6.0 13.0 0.00 0.00 0.00 56 1016.1
20260506040604 65 294 6.0 16.0 0.00 0.00 0.00 56 1016.1
20260506040059 65 325 7.0 20.0 0.00 0.00 0.00 56 1016.2
20260506035559 65 321 4.0 13.0 0.00 0.00 0.00 55 1016.3
20260506035059 66 343 6.0 14.0 0.00 0.00 0.00 54 1016.2
20260506034627 66 316 6.0 14.0 0.00 0.00 0.00 54 1016.3
20260506034056 66 309 4.0 14.0 0.00 0.00 0.00 55 1016.4
20260506033556 66 308 6.0 14.0 0.00 0.00 0.00 55 1016.5
20260506033101 65 296 8.0 14.0 0.00 0.00 0.00 55 1016.6
20260506032554 65 266 5.0 15.0 0.00 0.00 0.00 55 1016.7
20260506032054 65 24 7.0 15.0 0.00 0.00 0.00 55 1016.8
20260506031553 65 305 8.0 15.0 0.00 0.00 0.00 56 1016.9
20260506031056 65 296 7.0 15.0 0.00 0.00 0.00 56 1017.0
20260506030553 65 329 7.0 14.0 0.00 0.00 0.00 55 1017.0
20260506030051 65 291 6.0 14.0 0.00 0.00 0.00 55 1017.1
20260506025550 65 312 7.0 13.0 0.00 0.00 0.00 55 1017.1
20260506025052 65 360 6.0 13.0 0.00 0.00 0.00 56 1017.2
20260506024548 64 273 7.0 13.0 0.00 0.00 0.00 56 1017.3
20260506024047 64 322 2.0 13.0 0.00 0.00 0.00 57 1017.4
20260506023546 64 312 4.0 13.0 0.00 0.00 0.00 58 1017.5
20260506023102 63 323 5.0 13.0 0.00 0.00 0.00 58 1017.6
20260506022543 63 323 5.0 13.0 0.00 0.00 0.00 58 1017.7
20260506022042 63 279 6.0 13.0 0.00 0.00 0.00 59 1017.8
20260506021540 63 328 4.0 12.0 0.00 0.00 0.00 60 1018.1
20260506021039 62 262 5.0 14.0 0.00 0.00 0.00 60 1018.2
20260506020539 62 287 7.0 14.0 0.00 0.00 0.00 60 1018.4
20260506020039 62 294 7.0 12.0 0.00 0.00 0.00 60 1018.5
20260506015537 62 320 6.0 15.0 0.00 0.00 0.00 60 1018.6
20260506015039 62 296 5.0 13.0 0.00 0.00 0.00 59 1018.7
20260506014536 62 280 5.0 12.0 0.00 0.00 0.00 59 1018.8
20260506014040 62 312 6.0 11.0 0.00 0.00 0.00 59 1018.9
20260506013538 61 295 5.0 13.0 0.00 0.00 0.00 60 1019.0
20260506013039 61 227 5.0 13.0 0.00 0.00 0.00 61 1019.2
20260506012534 61 330 5.0 13.0 0.00 0.00 0.00 61 1019.1
20260506012035 61 293 6.0 12.0 0.00 0.00 0.00 62 1019.3
20260506011532 60 292 5.0 12.0 0.00 0.00 0.00 62 1019.3
20260506011030 60 300 4.0 10.0 0.00 0.00 0.00 63 1019.4
20260506010529 60 312 3.0 9.0 0.00 0.00 0.00 63 1019.5
20260506010029 60 305 5.0 13.0 0.00 0.00 0.00 63 1019.5
20260506005527 60 320 4.0 13.0 0.00 0.00 0.00 63 1019.6
20260506005026 60 281 3.0 12.0 0.00 0.00 0.00 64 1019.6
20260506004534 60 300 4.0 12.0 0.00 0.00 0.00 64 1019.7
20260506004022 60 268 4.0 13.0 0.00 0.00 0.00 64 1019.8
20260506003522 60 334 6.0 14.0 0.00 0.00 0.00 64 1019.8
20260506003036 60 355 5.0 14.0 0.00 0.00 0.00 64 1019.9
20260506002520 60 340 6.0 11.0 0.00 0.00 0.00 65 1019.9
20260506002020 60 273 4.0 15.0 0.00 0.00 0.00 66 1019.9
20260506001519 59 295 6.0 15.0 0.00 0.00 0.00 66 1020.0
20260506001017 59 292 5.0 12.0 0.00 0.00 0.00 68 1020.1
20260506000516 58 279 6.0 11.0 0.00 0.00 0.00 69 1020.1
20260506000014 57 320 6.0 11.0 0.00 0.00 0.00 72 1020.1
20260505235513 56 318 4.0 10.0 0.00 0.00 0.00 74 1020.1
20260505235011 55 297 4.0 11.0 0.00 0.00 0.00 78 1020.1
20260505234515 54 267 6.0 11.0 0.00 0.00 0.00 81 1020.2
20260505234018 53 46 0.0 4.0 0.00 0.00 0.00 82 1020.2
20260505233515 53 355 0.0 3.0 0.00 0.00 0.00 83 1020.2
20260505233010 53 40 1.0 3.0 0.00 0.00 0.00 84 1020.3
20260505232509 53 42 1.0 3.0 0.00 0.00 0.00 85 1020.4
20260505232009 52 355 0.0 2.0 0.00 0.00 0.00 86 1020.4
20260505231510 52 355 0.0 2.0 0.00 0.00 0.00 87 1020.4
20260505231008 52 355 0.0 2.0 0.00 0.00 0.00 88 1020.5
20260505230507 51 355 0.0 2.0 0.00 0.00 0.00 88 1020.5
20260505230008 51 355 0.0 2.0 0.00 0.00 0.00 89 1020.5
20260505225505 50 355 0.0 2.0 0.00 0.00 0.00 89 1020.5
20260505225007 50 355 0.0 2.0 0.00 0.00 0.00 89 1020.5
20260505224506 49 355 1.0 2.0 0.00 0.00 0.00 90 1020.6
20260505224001 49 355 0.0 2.0 0.00 0.00 0.00 90 1020.7
20260505223501 48 355 0.0 3.0 0.00 0.00 0.00 89 1020.7
20260505223100 48 355 1.0 3.0 0.00 0.00 0.00 90 1020.7
20260505222559 47 146 0.0 2.0 0.00 0.00 0.00 89 1020.7
20260505222058 46 148 0.0 1.0 0.00 0.00 0.00 89 1020.7
20260505221557 45 148 0.0 0.0 0.00 0.00 0.00 88 1020.7
20260505221055 44 148 0.0 0.0 0.00 0.00 0.00 87 1020.8
20260505220555 43 148 0.0 0.0 0.00 0.00 0.00 87 1020.8
20260505215551 43 148 0.0 1.0 0.00 0.00 0.00 86 1020.8
20260505215049 42 148 0.0 1.0 0.00 0.00 0.00 85 1020.8
20260505214551 42 148 0.0 1.0 0.00 0.00 0.00 84 1020.8
20260505214147 42 148 0.0 0.0 0.00 0.00 0.00 84 1020.8
20260505213544 42 148 0.0 0.0 0.00 0.00 0.00 84 1020.8
20260505213043 42 148 0.0 0.0 0.00 0.00 0.00 83 1020.8
20260505212543 42 148 0.0 1.0 0.00 0.00 0.00 83 1020.8
20260505212041 42 245 0.0 1.0 0.00 0.00 0.00 83 1020.8
20260505211546 42 245 0.0 1.0 0.00 0.00 0.00 83 1020.9
20260505211039 42 245 0.0 0.0 0.00 0.00 0.00 83 1020.7
20260505210538 42 245 0.0 0.0 0.00 0.00 0.00 83 1020.8
20260505210038 42 245 0.0 0.0 0.00 0.00 0.00 83 1020.8
20260505205537 42 245 0.0 0.0 0.00 0.02 0.00 82 1020.9
20260505205038 42 245 0.0 0.0 0.00 0.02 0.00 82 1021.0
20260505204537 42 245 0.0 1.0 0.00 0.02 0.00 82 1021.1
20260505204136 42 245 0.0 1.0 0.00 0.02 0.00 82 1021.1
20260505203541 42 245 0.0 1.0 0.00 0.02 0.00 82 1021.1
20260505203038 43 245 0.0 1.0 0.00 0.02 0.00 82 1021.2
20260505202536 43 245 0.0 1.0 0.00 0.02 0.00 81 1021.2
20260505202036 43 245 0.0 1.0 0.00 0.02 0.00 81 1021.2
20260505201537 43 245 0.0 1.0 0.00 0.02 0.00 81 1021.2
20260505201034 43 245 0.0 1.0 0.00 0.02 0.00 81 1021.3
20260505200534 43 245 0.0 1.0 0.00 0.02 0.00 80 1021.2
20260505200035 43 245 0.0 1.0 0.00 0.02 0.00 80 1021.2
20260505195533 43 245 0.0 1.0 0.00 0.02 0.00 80 1021.2
20260505195031 43 245 0.0 1.0 0.00 0.02 0.00 80 1021.1
20260505194536 43 245 0.0 1.0 0.00 0.02 0.00 80 1021.2
20260505194131 44 245 0.0 0.0 0.00 0.02 0.00 80 1021.2
20260505193527 44 245 0.0 0.0 0.00 0.02 0.00 80 1021.1
20260505193037 44 245 0.0 0.0 0.00 0.02 0.00 80 1021.1
20260505192526 44 245 0.0 0.0 0.00 0.02 0.00 80 1021.1
20260505192025 44 245 0.0 0.0 0.00 0.02 0.00 80 1021.1
20260505191532 44 245 0.0 0.0 0.00 0.02 0.00 80 1021.1
20260505191032 44 245 0.0 0.0 0.00 0.02 0.00 79 1021.1
20260505190523 45 245 0.0 0.0 0.00 0.02 0.00 79 1021.1
20260505190022 45 245 0.0 0.0 0.00 0.02 0.00 79 1021.1
20260505185522 45 245 0.0 0.0 0.00 0.02 0.00 79 1021.2
20260505185021 45 245 0.0 0.0 0.00 0.02 0.00 79 1021.1
20260505184520 45 245 0.0 0.0 0.00 0.02 0.00 79 1021.0
20260505184119 45 245 0.0 0.0 0.00 0.02 0.00 79 1021.1
20260505183520 46 245 0.0 0.0 0.00 0.02 0.00 79 1021.1
20260505183025 46 245 0.0 0.0 0.00 0.02 0.00 79 1021.0
20260505182519 46 245 0.0 0.0 0.00 0.02 0.00 79 1021.0
20260505182021 46 245 0.0 0.0 0.00 0.02 0.00 79 1021.1
20260505181518 46 245 0.0 0.0 0.00 0.02 0.00 78 1021.1
20260505181017 46 245 0.0 0.0 0.00 0.02 0.00 78 1021.1
20260505180517 47 245 0.0 0.0 0.00 0.02 0.00 78 1021.1
20260505180020 47 245 0.0 0.0 0.00 0.02 0.00 78 1021.1
20260505175514 47 245 0.0 0.0 0.00 0.02 0.00 78 1021.0
20260505175013 47 245 0.0 0.0 0.00 0.02 0.00 78 1021.0
20260505174526 47 245 0.0 0.0 0.00 0.02 0.00 78 1021.1
20260505174112 47 245 0.0 0.0 0.00 0.02 0.00 78 1021.2
20260505173509 47 245 0.0 0.0 0.00 0.02 0.00 77 1021.2
20260505173007 48 245 0.0 0.0 0.00 0.02 0.00 77 1021.3
20260505172506 48 245 0.0 0.0 0.00 0.02 0.00 77 1021.3
20260505172005 48 245 0.0 0.0 0.00 0.02 0.00 77 1021.4
20260505171504 48 245 0.0 0.0 0.00 0.02 0.00 76 1021.4
20260505171004 48 245 0.0 0.0 0.00 0.02 0.00 76 1021.4
20260505170502 49 245 0.0 0.0 0.00 0.02 0.00 76 1021.5
20260505170004 49 245 0.0 0.0 0.00 0.02 0.00 76 1021.5
20260505165501 49 245 0.0 0.0 0.00 0.02 0.00 75 1021.4
20260505165100 49 245 0.0 0.0 0.00 0.02 0.00 75 1021.4
20260505164600 49 245 0.0 0.0 0.00 0.02 0.00 75 1021.5
20260505164101 49 245 0.0 0.0 0.00 0.02 0.00 74 1021.5
20260505163600 50 245 0.0 0.0 0.00 0.02 0.00 74 1021.5
20260505163058 50 245 0.0 0.0 0.00 0.02 0.00 74 1021.5
20260505162557 50 245 0.0 0.0 0.00 0.02 0.00 74 1021.6
20260505162057 50 245 0.0 0.0 0.00 0.02 0.00 73 1021.6
20260505161602 51 245 0.0 0.0 0.00 0.02 0.00 73 1021.6
20260505161054 51 245 0.0 1.0 0.00 0.02 0.00 73 1021.7
20260505160557 51 245 0.0 1.0 0.00 0.02 0.00 73 1021.7
20260505153055 53 245 0.0 2.0 0.00 0.02 0.00 72 1021.9
20260505152544 53 245 0.0 1.0 0.00 0.02 0.00 72 1021.9
20260505152043 53 245 0.0 1.0 0.00 0.02 0.00 72 1022.0
20260505151549 53 245 0.0 1.0 0.00 0.02 0.00 72 1022.0
20260505151041 54 245 0.0 1.0 0.00 0.02 0.00 72 1022.1
20260505150541 54 245 0.0 2.0 0.00 0.02 0.00 72 1022.1
20260505140532 56 315 0.0 1.0 0.00 0.02 0.00 71 1021.9